Regional Weather Roundup
Issued by NWS

Home | Current Version | Previous Version | Graphics & Text | Print | Product List | Glossary On
Versions: 1 2 3 4 5 6 7 8 9 10 11 12 13 14 15 16 17 18 19 20 21 22 23 24 25 26 27 28 29 30 31 32 33 34 35 36 37 38 39 40 41 42 43 44 45 46 47 48 49 50
000
ASUS43 KBIS 240131
RWRND
NORTH DAKOTA REGIONAL WEATHER ROUNDUP
NATIONAL WEATHER SERVICE EASTERN NORTH DAKOTA/GRAND FORKS ND
800 PM CDT WED MAY 23 2018

  NOTE: "FAIR" INDICATES FEW OR NO CLOUDS BELOW 12,000 FEET WITH NO
  SIGNIFICANT WEATHER AND/OR OBSTRUCTIONS TO VISIBILITY.

NDZ001>003-009>011-017-240200-
...NORTHWEST NORTH DAKOTA...

CITY           SKY/WX    TMP DP  RH WIND       PRES   REMARKS
WILLISTON      FAIR      77  59  53 SE8       29.79F
MINOT          PTSUNNY   81  61  50 SE13G23   29.82F
MINOT AFB      FAIR      79  60  52 SE17      29.80F
$$

NDZ018>021-031>035-040>046-240200-
...SOUTHWEST NORTH DAKOTA...

CITY           SKY/WX    TMP DP  RH WIND       PRES   REMARKS
BISMARCK       FAIR      79  66  64 S8        29.82F
DICKINSON      FAIR      76  58  53 SE9       29.80F
GARRISON         N/A     76  62  62 S9        29.81F
HETTINGER      FAIR      75  59  57 SE12      29.85F
$$

NDZ004>008-012>016-024-026-027-054-240200-
...NORTHEAST NORTH DAKOTA...

CITY           SKY/WX    TMP DP  RH WIND       PRES   REMARKS
GRAND FORKS    MOCLDY    79  60  52 S14       29.91F
GRAND FORKS AF FAIR      77  61  56 S14       29.92F
DEVILS LAKE    CLOUDY    73  61  65 SE9       29.91F
$$

NDZ022-023-025-028>030-036>039-047>053-240200-
...SOUTHEAST NORTH DAKOTA...

CITY           SKY/WX    TMP DP  RH WIND       PRES   REMARKS
JAMESTOWN      FAIR      78  65  63 SE15G26   29.88F
FARGO          FAIR      77  61  57 SE15      29.92F
WAHPETON       FAIR      70  61  73 SE16G24   29.94F
$$




USA.gov is the U.S. government's official web portal to all federal, state and local government web resources and services.